owner,sensor,date,latitude,longitude,vertical_datum,wind_speed,wind_to_direction,wind_speed_of_gust,qcFlag 
WAVCIS,ioos:station:WAVCIS:CSI06:1,2013-06-01T00:00:00Z,28.8667,-90.4833,10.0,6.026,120.0,,'11111222,11111222,99999999' 
WAVCIS,ioos:station:WAVCIS:CSI06:1,2013-06-01T01:00:00Z,28.8667,-90.4833,10.0,6.747,111.0,,'11111222,11111222,99999999' 
WAVCIS,ioos:station:WAVCIS:CSI06:1,2013-06-01T02:00:00Z,28.8667,-90.4833,10.0,7.05,111.0,,'11111222,11111222,99999999' 
WAVCIS,ioos:station:WAVCIS:CSI06:1,2013-06-01T03:00:00Z,28.8667,-90.4833,10.0,7.76,114.0,,'11111222,11111222,99999999' 
WAVCIS,ioos:station:WAVCIS:CSI06:1,2013-06-01T04:00:00Z,28.8667,-90.4833,10.0,8.51,116.0,,'11111222,11111222,99999999' 
WAVCIS,ioos:station:WAVCIS:CSI06:1,2013-06-01T05:00:00Z,28.8667,-90.4833,10.0,9.04,124.0,,'11111222,11111222,99999999' 
WAVCIS,ioos:station:WAVCIS:CSI06:1,2013-06-01T06:00:00Z,28.8667,-90.4833,10.0,7.91,128.0,,'11111222,11111222,99999999' 
WAVCIS,ioos:station:WAVCIS:CSI06:1,2013-06-01T07:00:00Z,28.8667,-90.4833,10.0,6.367,130.0,,'11111222,11111222,99999999' 
WAVCIS,ioos:station:WAVCIS:CSI06:1,2013-06-01T08:00:00Z,28.8667,-90.4833,10.0,6.093,134.0,,'11111222,11111222,99999999' 
WAVCIS,ioos:station:WAVCIS:CSI06:1,2013-06-01T09:00:00Z,28.8667,-90.4833,10.0,4.889,126.0,,'11111222,11111222,99999999' 
WAVCIS,ioos:station:WAVCIS:CSI06:1,2013-06-01T10:00:00Z,28.8667,-90.4833,10.0,5.018,136.0,,'11111222,11111222,99999999' 
WAVCIS,ioos:station:WAVCIS:CSI06:1,2013-06-01T11:00:00Z,28.8667,-90.4833,10.0,3.878,133.0,,'11111222,11111222,99999999' 
WAVCIS,ioos:station:WAVCIS:CSI06:1,2013-06-01T12:00:00Z,28.8667,-90.4833,10.0,4.094,133.0,,'11111222,11111222,99999999' 
WAVCIS,ioos:station:WAVCIS:CSI06:1,2013-06-01T13:00:00Z,28.8667,-90.4833,10.0,3.249,148.0,,'11111222,11111222,99999999' 
WAVCIS,ioos:station:WAVCIS:CSI06:1,2013-06-01T14:00:00Z,28.8667,-90.4833,10.0,3.401,143.0,,'11111222,11111222,99999999' 
WAVCIS,ioos:station:WAVCIS:CSI06:1,2013-06-01T15:00:00Z,28.8667,-90.4833,10.0,3.803,129.0,,'11111222,11111222,99999999' 
WAVCIS,ioos:station:WAVCIS:CSI06:1,2013-06-01T16:00:00Z,28.8667,-90.4833,10.0,4.551,127.0,,'11111222,11111222,99999999' 
WAVCIS,ioos:station:WAVCIS:CSI06:1,2013-06-01T17:00:00Z,28.8667,-90.4833,10.0,5.2,127.0,,'11111222,11111222,99999999' 
WAVCIS,ioos:station:WAVCIS:CSI06:1,2013-06-01T18:00:00Z,28.8667,-90.4833,10.0,5.388,124.0,,'11111222,11111222,99999999' 
WAVCIS,ioos:station:WAVCIS:CSI06:1,2013-06-01T19:00:00Z,28.8667,-90.4833,10.0,4.893,117.0,,'11111222,11111222,99999999' 
WAVCIS,ioos:station:WAVCIS:CSI06:1,2013-06-01T20:00:00Z,28.8667,-90.4833,10.0,4.703,108.0,,'11111222,11111222,99999999' 
WAVCIS,ioos:station:WAVCIS:CSI06:1,2013-06-01T21:00:00Z,28.8667,-90.4833,10.0,4.695,112.0,,'11111222,11111222,99999999' 
WAVCIS,ioos:station:WAVCIS:CSI06:1,2013-06-01T22:00:00Z,28.8667,-90.4833,10.0,5.301,124.0,,'11111222,11111222,99999999' 
WAVCIS,ioos:station:WAVCIS:CSI06:1,2013-06-01T23:00:00Z,28.8667,-90.4833,10.0,5.329,124.0,,'11111222,11111222,99999999' 
WAVCIS,ioos:station:WAVCIS:CSI06:1,2013-06-02T00:00:00Z,28.8667,-90.4833,10.0,5.125,122.0,,'11111222,11111222,99999999' 
WAVCIS,ioos:station:WAVCIS:CSI06:1,2013-06-02T01:00:00Z,28.8667,-90.4833,10.0,6.583,123.0,,'11111222,11111222,99999999' 
WAVCIS,ioos:station:WAVCIS:CSI06:1,2013-06-02T02:00:00Z,28.8667,-90.4833,10.0,6.976,123.0,,'11111222,11111222,99999999' 
WAVCIS,ioos:station:WAVCIS:CSI06:1,2013-06-02T03:00:00Z,28.8667,-90.4833,10.0,7.33,121.0,,'11111222,11111222,99999999' 
WAVCIS,ioos:station:WAVCIS:CSI06:1,2013-06-02T04:00:00Z,28.8667,-90.4833,10.0,8.91,132.0,,'11111222,11111222,99999999' 
WAVCIS,ioos:station:WAVCIS:CSI06:1,2013-06-02T05:00:00Z,28.8667,-90.4833,10.0,8.44,138.0,,'11111222,11111222,99999999' 
WAVCIS,ioos:station:WAVCIS:CSI06:1,2013-06-02T06:00:00Z,28.8667,-90.4833,10.0,5.985,145.0,,'11111222,11111222,99999999' 
WAVCIS,ioos:station:WAVCIS:CSI06:1,2013-06-02T07:00:00Z,28.8667,-90.4833,10.0,6.233,136.0,,'11111222,11111222,99999999' 
WAVCIS,ioos:station:WAVCIS:CSI06:1,2013-06-02T08:00:00Z,28.8667,-90.4833,10.0,4.623,134.0,,'11111222,11111222,99999999' 
WAVCIS,ioos:station:WAVCIS:CSI06:1,2013-06-02T09:00:00Z,28.8667,-90.4833,10.0,3.771,133.0,,'11111222,11111222,99999999' 
WAVCIS,ioos:station:WAVCIS:CSI06:1,2013-06-02T10:00:00Z,28.8667,-90.4833,10.0,3.769,134.0,,'11111222,11111222,99999999' 
WAVCIS,ioos:station:WAVCIS:CSI06:1,2013-06-02T11:00:00Z,28.8667,-90.4833,10.0,2.488,125.0,,'11111222,11111222,99999999' 
WAVCIS,ioos:station:WAVCIS:CSI06:1,2013-06-02T12:00:00Z,28.8667,-90.4833,10.0,1.998,164.0,,'11111222,11111222,99999999' 
WAVCIS,ioos:station:WAVCIS:CSI06:1,2013-06-02T13:00:00Z,28.8667,-90.4833,10.0,1.312,217.0,,'11111222,11111222,99999999' 
WAVCIS,ioos:station:WAVCIS:CSI06:1,2013-06-02T14:00:00Z,28.8667,-90.4833,10.0,0.589,227.0,,'11111222,11111222,99999999' 
WAVCIS,ioos:station:WAVCIS:CSI06:1,2013-06-02T15:00:00Z,28.8667,-90.4833,10.0,2.273,169.0,,'11111222,11111222,99999999' 
WAVCIS,ioos:station:WAVCIS:CSI06:1,2013-06-02T16:00:00Z,28.8667,-90.4833,10.0,1.537,282.0,,'11111222,11111222,99999999' 
WAVCIS,ioos:station:WAVCIS:CSI06:1,2013-06-02T17:00:00Z,28.8667,-90.4833,10.0,15.19,28.0,,'11111222,11111222,99999999' 
WAVCIS,ioos:station:WAVCIS:CSI06:1,2013-06-02T18:00:00Z,28.8667,-90.4833,10.0,12.05,49.0,,'11111222,11111222,99999999' 
WAVCIS,ioos:station:WAVCIS:CSI06:1,2013-06-02T19:00:00Z,28.8667,-90.4833,10.0,7.45,78.0,,'11111222,11111222,99999999' 
WAVCIS,ioos:station:WAVCIS:CSI06:1,2013-06-02T20:00:00Z,28.8667,-90.4833,10.0,6.43,118.0,,'11111222,11111222,99999999' 
WAVCIS,ioos:station:WAVCIS:CSI06:1,2013-06-02T21:00:00Z,28.8667,-90.4833,10.0,5.703,167.0,,'11111222,11111222,99999999' 
WAVCIS,ioos:station:WAVCIS:CSI06:1,2013-06-02T22:00:00Z,28.8667,-90.4833,10.0,3.9,217.0,,'11111222,11111222,99999999' 
WAVCIS,ioos:station:WAVCIS:CSI06:1,2013-06-02T23:00:00Z,28.8667,-90.4833,10.0,7.12,102.0,,'11111222,11111222,99999999' 
WAVCIS,ioos:station:WAVCIS:CSI06:1,2013-06-03T00:00:00Z,28.8667,-90.4833,10.0,2.798,148.0,,'11111222,11111222,99999999' 
WAVCIS,ioos:station:WAVCIS:CSI06:1,2013-06-03T01:00:00Z,28.8667,-90.4833,10.0,2.011,53.0,,'11111222,11111222,99999999' 
WAVCIS,ioos:station:WAVCIS:CSI06:1,2013-06-03T02:00:00Z,28.8667,-90.4833,10.0,1.79,87.0,,'11111222,11111222,99999999' 
WAVCIS,ioos:station:WAVCIS:CSI06:1,2013-06-03T03:00:00Z,28.8667,-90.4833,10.0,2.86,114.0,,'11111222,11111222,99999999' 
WAVCIS,ioos:station:WAVCIS:CSI06:1,2013-06-03T04:00:00Z,28.8667,-90.4833,10.0,1.936,109.0,,'11111222,11111222,99999999' 
WAVCIS,ioos:station:WAVCIS:CSI06:1,2013-06-03T05:00:00Z,28.8667,-90.4833,10.0,2.763,129.0,,'11111222,11111222,99999999' 
WAVCIS,ioos:station:WAVCIS:CSI06:1,2013-06-03T06:00:00Z,28.8667,-90.4833,10.0,2.941,114.0,,'11111222,11111222,99999999' 
WAVCIS,ioos:station:WAVCIS:CSI06:1,2013-06-03T07:00:00Z,28.8667,-90.4833,10.0,3.662,149.0,,'11111222,11111222,99999999' 
WAVCIS,ioos:station:WAVCIS:CSI06:1,2013-06-03T08:00:00Z,28.8667,-90.4833,10.0,2.166,148.0,,'11111222,11111222,99999999' 
WAVCIS,ioos:station:WAVCIS:CSI06:1,2013-06-03T09:00:00Z,28.8667,-90.4833,10.0,1.896,163.0,,'11111222,11111222,99999999' 
WAVCIS,ioos:station:WAVCIS:CSI06:1,2013-06-03T10:00:00Z,28.8667,-90.4833,10.0,2.388,152.0,,'11111222,11111222,99999999' 
WAVCIS,ioos:station:WAVCIS:CSI06:1,2013-06-03T11:00:00Z,28.8667,-90.4833,10.0,1.552,179.0,,'11111222,11111222,99999999' 
WAVCIS,ioos:station:WAVCIS:CSI06:1,2013-06-03T12:00:00Z,28.8667,-90.4833,10.0,0.274,207.0,,'11111222,11111222,99999999' 
WAVCIS,ioos:station:WAVCIS:CSI06:1,2013-06-03T13:00:00Z,28.8667,-90.4833,10.0,0.004,144.0,,'11111222,11111222,99999999' 
WAVCIS,ioos:station:WAVCIS:CSI06:1,2013-06-03T14:00:00Z,28.8667,-90.4833,10.0,0.461,334.0,,'11111222,11111222,99999999' 
WAVCIS,ioos:station:WAVCIS:CSI06:1,2013-06-03T15:00:00Z,28.8667,-90.4833,10.0,0.859,85.0,,'11111222,11111222,99999999' 
WAVCIS,ioos:station:WAVCIS:CSI06:1,2013-06-03T16:00:00Z,28.8667,-90.4833,10.0,0.172,239.0,,'11111222,11111222,99999999' 
WAVCIS,ioos:station:WAVCIS:CSI06:1,2013-06-03T17:00:00Z,28.8667,-90.4833,10.0,0.913,89.0,,'11111222,11111222,99999999' 
WAVCIS,ioos:station:WAVCIS:CSI06:1,2013-06-03T18:00:00Z,28.8667,-90.4833,10.0,0.696,105.0,,'11111222,11111222,99999999' 
WAVCIS,ioos:station:WAVCIS:CSI06:1,2013-06-03T19:00:00Z,28.8667,-90.4833,10.0,1.028,106.0,,'11111222,11111222,99999999' 
WAVCIS,ioos:station:WAVCIS:CSI06:1,2013-06-03T20:00:00Z,28.8667,-90.4833,10.0,1.405,105.0,,'11111222,11111222,99999999' 
WAVCIS,ioos:station:WAVCIS:CSI06:1,2013-06-03T21:00:00Z,28.8667,-90.4833,10.0,1.772,140.0,,'11111222,11111222,99999999' 
WAVCIS,ioos:station:WAVCIS:CSI06:1,2013-06-03T22:00:00Z,28.8667,-90.4833,10.0,3.074,125.0,,'11111222,11111222,99999999' 
WAVCIS,ioos:station:WAVCIS:CSI06:1,2013-06-03T23:00:00Z,28.8667,-90.4833,10.0,3.962,125.0,,'11111222,11111222,99999999' 
WAVCIS,ioos:station:WAVCIS:CSI06:1,2013-06-04T00:00:00Z,28.8667,-90.4833,10.0,3.933,127.0,,'11111222,11111222,99999999' 
WAVCIS,ioos:station:WAVCIS:CSI06:1,2013-06-04T01:00:00Z,28.8667,-90.4833,10.0,4.714,130.0,,'11111222,11111222,99999999' 
WAVCIS,ioos:station:WAVCIS:CSI06:1,2013-06-04T02:00:00Z,28.8667,-90.4833,10.0,5.009,125.0,,'11111222,11111222,99999999' 
WAVCIS,ioos:station:WAVCIS:CSI06:1,2013-06-04T03:00:00Z,28.8667,-90.4833,10.0,6.159,130.0,,'11111222,11111222,99999999' 
WAVCIS,ioos:station:WAVCIS:CSI06:1,2013-06-04T04:00:00Z,28.8667,-90.4833,10.0,6.268,141.0,,'11111222,11111222,99999999' 
WAVCIS,ioos:station:WAVCIS:CSI06:1,2013-06-04T05:00:00Z,28.8667,-90.4833,10.0,5.059,147.0,,'11111222,11111222,99999999' 
WAVCIS,ioos:station:WAVCIS:CSI06:1,2013-06-04T06:00:00Z,28.8667,-90.4833,10.0,4.614,147.0,,'11111222,11111222,99999999' 
WAVCIS,ioos:station:WAVCIS:CSI06:1,2013-06-04T07:00:00Z,28.8667,-90.4833,10.0,3.881,150.0,,'11111222,11111222,99999999' 
WAVCIS,ioos:station:WAVCIS:CSI06:1,2013-06-04T08:00:00Z,28.8667,-90.4833,10.0,3.732,147.0,,'11111222,11111222,99999999' 
WAVCIS,ioos:station:WAVCIS:CSI06:1,2013-06-04T09:00:00Z,28.8667,-90.4833,10.0,1.92,139.0,,'11111222,11111222,99999999' 
WAVCIS,ioos:station:WAVCIS:CSI06:1,2013-06-04T10:00:00Z,28.8667,-90.4833,10.0,1.707,108.0,,'11111222,11111222,99999999' 
WAVCIS,ioos:station:WAVCIS:CSI06:1,2013-06-04T11:00:00Z,28.8667,-90.4833,10.0,1.493,113.0,,'11111222,11111222,99999999' 
WAVCIS,ioos:station:WAVCIS:CSI06:1,2013-06-04T12:00:00Z,28.8667,-90.4833,10.0,1.238,45.0,,'11111222,11111222,99999999' 
WAVCIS,ioos:station:WAVCIS:CSI06:1,2013-06-04T13:00:00Z,28.8667,-90.4833,10.0,1.078,33.0,,'11111222,11111222,99999999' 
WAVCIS,ioos:station:WAVCIS:CSI06:1,2013-06-04T14:00:00Z,28.8667,-90.4833,10.0,3.947,64.0,,'11111222,11111222,99999999' 
WAVCIS,ioos:station:WAVCIS:CSI06:1,2013-06-04T15:00:00Z,28.8667,-90.4833,10.0,4.572,73.0,,'11111222,11111222,99999999' 
WAVCIS,ioos:station:WAVCIS:CSI06:1,2013-06-04T16:00:00Z,28.8667,-90.4833,10.0,5.211,61.0,,'11111222,11111222,99999999' 
WAVCIS,ioos:station:WAVCIS:CSI06:1,2013-06-04T17:00:00Z,28.8667,-90.4833,10.0,4.815,70.0,,'11111222,11111222,99999999' 
WAVCIS,ioos:station:WAVCIS:CSI06:1,2013-06-04T18:00:00Z,28.8667,-90.4833,10.0,5.584,79.0,,'11111222,11111222,99999999' 
WAVCIS,ioos:station:WAVCIS:CSI06:1,2013-06-04T19:00:00Z,28.8667,-90.4833,10.0,5.443,76.0,,'11111222,11111222,99999999' 
WAVCIS,ioos:station:WAVCIS:CSI06:1,2013-06-04T20:00:00Z,28.8667,-90.4833,10.0,5.732,85.0,,'11111222,11111222,99999999' 
WAVCIS,ioos:station:WAVCIS:CSI06:1,2013-06-04T21:00:00Z,28.8667,-90.4833,10.0,6.082,89.0,,'11111222,11111222,99999999' 
WAVCIS,ioos:station:WAVCIS:CSI06:1,2013-06-04T22:00:00Z,28.8667,-90.4833,10.0,7.39,94.0,,'11111222,11111222,99999999' 
WAVCIS,ioos:station:WAVCIS:CSI06:1,2013-06-04T23:00:00Z,28.8667,-90.4833,10.0,7.4,101.0,,'11111222,11111222,99999999' 
WAVCIS,ioos:station:WAVCIS:CSI06:1,2013-06-05T00:00:00Z,28.8667,-90.4833,10.0,7.83,95.0,,'11111222,11111222,99999999' 
WAVCIS,ioos:station:WAVCIS:CSI06:1,2013-06-05T01:00:00Z,28.8667,-90.4833,10.0,8.99,91.0,,'11111222,11111222,99999999' 
WAVCIS,ioos:station:WAVCIS:CSI06:1,2013-06-05T02:00:00Z,28.8667,-90.4833,10.0,8.1,101.0,,'11111222,11111222,99999999' 
WAVCIS,ioos:station:WAVCIS:CSI06:1,2013-06-05T03:00:00Z,28.8667,-90.4833,10.0,8.87,109.0,,'11111222,11111222,99999999' 
WAVCIS,ioos:station:WAVCIS:CSI06:1,2013-06-05T04:00:00Z,28.8667,-90.4833,10.0,8.57,112.0,,'11111222,11111222,99999999' 
WAVCIS,ioos:station:WAVCIS:CSI06:1,2013-06-05T05:00:00Z,28.8667,-90.4833,10.0,7.22,114.0,,'11111222,11111222,99999999' 
WAVCIS,ioos:station:WAVCIS:CSI06:1,2013-06-05T06:00:00Z,28.8667,-90.4833,10.0,7.58,111.0,,'11111222,11111222,99999999' 
WAVCIS,ioos:station:WAVCIS:CSI06:1,2013-06-05T07:00:00Z,28.8667,-90.4833,10.0,7.95,108.0,,'11111222,11111222,99999999' 
WAVCIS,ioos:station:WAVCIS:CSI06:1,2013-06-05T08:00:00Z,28.8667,-90.4833,10.0,8.59,119.0,,'11111222,11111222,99999999' 
WAVCIS,ioos:station:WAVCIS:CSI06:1,2013-06-05T09:00:00Z,28.8667,-90.4833,10.0,7.13,116.0,,'11111222,11111222,99999999' 
WAVCIS,ioos:station:WAVCIS:CSI06:1,2013-06-05T10:00:00Z,28.8667,-90.4833,10.0,8.27,108.0,,'11111222,11111222,99999999' 
WAVCIS,ioos:station:WAVCIS:CSI06:1,2013-06-05T11:00:00Z,28.8667,-90.4833,10.0,6.759,94.0,,'11111222,11111222,99999999' 
WAVCIS,ioos:station:WAVCIS:CSI06:1,2013-06-05T12:00:00Z,28.8667,-90.4833,10.0,8.02,95.0,,'11111222,11111222,99999999' 
WAVCIS,ioos:station:WAVCIS:CSI06:1,2013-06-05T13:00:00Z,28.8667,-90.4833,10.0,7.76,87.0,,'11111222,11111222,99999999' 
WAVCIS,ioos:station:WAVCIS:CSI06:1,2013-06-05T14:00:00Z,28.8667,-90.4833,10.0,7.73,87.0,,'11111222,11111222,99999999' 
WAVCIS,ioos:station:WAVCIS:CSI06:1,2013-06-05T15:00:00Z,28.8667,-90.4833,10.0,8.21,87.0,,'11111222,11111222,99999999' 
WAVCIS,ioos:station:WAVCIS:CSI06:1,2013-06-05T16:00:00Z,28.8667,-90.4833,10.0,7.95,81.0,,'11111222,11111222,99999999' 
WAVCIS,ioos:station:WAVCIS:CSI06:1,2013-06-05T17:00:00Z,28.8667,-90.4833,10.0,8.65,85.0,,'11111222,11111222,99999999' 
WAVCIS,ioos:station:WAVCIS:CSI06:1,2013-06-05T18:00:00Z,28.8667,-90.4833,10.0,8.66,82.0,,'11111222,11111222,99999999' 
WAVCIS,ioos:station:WAVCIS:CSI06:1,2013-06-05T19:00:00Z,28.8667,-90.4833,10.0,8.82,85.0,,'11111222,11111222,99999999' 
WAVCIS,ioos:station:WAVCIS:CSI06:1,2013-06-05T20:00:00Z,28.8667,-90.4833,10.0,9.73,93.0,,'11111222,11111222,99999999' 
WAVCIS,ioos:station:WAVCIS:CSI06:1,2013-06-05T21:00:00Z,28.8667,-90.4833,10.0,8.92,97.0,,'11111222,11111222,99999999' 
WAVCIS,ioos:station:WAVCIS:CSI06:1,2013-06-05T22:00:00Z,28.8667,-90.4833,10.0,7.69,95.0,,'11111222,11111222,99999999' 
WAVCIS,ioos:station:WAVCIS:CSI06:1,2013-06-05T23:00:00Z,28.8667,-90.4833,10.0,7.87,90.0,,'11111222,11111222,99999999' 
WAVCIS,ioos:station:WAVCIS:CSI06:1,2013-06-06T00:00:00Z,28.8667,-90.4833,10.0,8.5,84.0,,'11111222,11111222,99999999' 
WAVCIS,ioos:station:WAVCIS:CSI06:1,2013-06-06T01:00:00Z,28.8667,-90.4833,10.0,9.23,90.0,,'11111222,11111222,99999999' 
WAVCIS,ioos:station:WAVCIS:CSI06:1,2013-06-06T02:00:00Z,28.8667,-90.4833,10.0,9.8,96.0,,'11111222,11111222,99999999' 
WAVCIS,ioos:station:WAVCIS:CSI06:1,2013-06-06T03:00:00Z,28.8667,-90.4833,10.0,10.55,96.0,,'11111222,11111222,99999999' 
WAVCIS,ioos:station:WAVCIS:CSI06:1,2013-06-06T04:00:00Z,28.8667,-90.4833,10.0,10.17,108.0,,'11111222,11111222,99999999' 
WAVCIS,ioos:station:WAVCIS:CSI06:1,2013-06-06T05:00:00Z,28.8667,-90.4833,10.0,8.46,98.0,,'11111222,11111222,99999999' 
WAVCIS,ioos:station:WAVCIS:CSI06:1,2013-06-06T06:00:00Z,28.8667,-90.4833,10.0,8.61,91.0,,'11111222,11111222,99999999' 
WAVCIS,ioos:station:WAVCIS:CSI06:1,2013-06-06T07:00:00Z,28.8667,-90.4833,10.0,8.33,95.0,,'11111222,11111222,99999999' 
WAVCIS,ioos:station:WAVCIS:CSI06:1,2013-06-06T08:00:00Z,28.8667,-90.4833,10.0,7.34,89.0,,'11111222,11111222,99999999' 
WAVCIS,ioos:station:WAVCIS:CSI06:1,2013-06-06T09:00:00Z,28.8667,-90.4833,10.0,6.474,77.0,,'11111222,11111222,99999999' 
WAVCIS,ioos:station:WAVCIS:CSI06:1,2013-06-06T10:00:00Z,28.8667,-90.4833,10.0,5.344,82.0,,'11111222,11111222,99999999' 
WAVCIS,ioos:station:WAVCIS:CSI06:1,2013-06-06T11:00:00Z,28.8667,-90.4833,10.0,4.698,96.0,,'11111222,11111222,99999999' 
WAVCIS,ioos:station:WAVCIS:CSI06:1,2013-06-06T12:00:00Z,28.8667,-90.4833,10.0,2.389,106.0,,'11111222,11111222,99999999' 
WAVCIS,ioos:station:WAVCIS:CSI06:1,2013-06-06T13:00:00Z,28.8667,-90.4833,10.0,1.819,84.0,,'11111222,11111222,99999999' 
WAVCIS,ioos:station:WAVCIS:CSI06:1,2013-06-06T14:00:00Z,28.8667,-90.4833,10.0,1.025,31.0,,'11111222,11111222,99999999' 
WAVCIS,ioos:station:WAVCIS:CSI06:1,2013-06-06T15:00:00Z,28.8667,-90.4833,10.0,2.619,18.0,,'11111222,11111222,99999999' 
WAVCIS,ioos:station:WAVCIS:CSI06:1,2013-06-06T16:00:00Z,28.8667,-90.4833,10.0,2.189,14.0,,'11111222,11111222,99999999' 
WAVCIS,ioos:station:WAVCIS:CSI06:1,2013-06-06T17:00:00Z,28.8667,-90.4833,10.0,1.011,2.0,,'11111222,11111222,99999999' 
WAVCIS,ioos:station:WAVCIS:CSI06:1,2013-06-06T18:00:00Z,28.8667,-90.4833,10.0,2.323,17.0,,'11111222,11111222,99999999' 
WAVCIS,ioos:station:WAVCIS:CSI06:1,2013-06-06T19:00:00Z,28.8667,-90.4833,10.0,1.113,14.0,,'11111222,11111222,99999999' 
WAVCIS,ioos:station:WAVCIS:CSI06:1,2013-06-06T20:00:00Z,28.8667,-90.4833,10.0,0.751,331.0,,'11111222,11111222,99999999' 
WAVCIS,ioos:station:WAVCIS:CSI06:1,2013-06-06T21:00:00Z,28.8667,-90.4833,10.0,1.875,244.0,,'11111222,11111222,99999999' 
WAVCIS,ioos:station:WAVCIS:CSI06:1,2013-06-06T22:00:00Z,28.8667,-90.4833,10.0,4.198,257.0,,'11111222,11111222,99999999' 
WAVCIS,ioos:station:WAVCIS:CSI06:1,2013-06-06T23:00:00Z,28.8667,-90.4833,10.0,4.709,277.0,,'11111222,11111222,99999999' 
WAVCIS,ioos:station:WAVCIS:CSI06:1,2013-06-07T00:00:00Z,28.8667,-90.4833,10.0,3.056,337.0,,'11111222,11111222,99999999' 
WAVCIS,ioos:station:WAVCIS:CSI06:1,2013-06-07T01:00:00Z,28.8667,-90.4833,10.0,8.02,62.0,,'11111222,11111222,99999999' 
WAVCIS,ioos:station:WAVCIS:CSI06:1,2013-06-07T02:00:00Z,28.8667,-90.4833,10.0,4.405,90.0,,'11111222,11111222,99999999' 
WAVCIS,ioos:station:WAVCIS:CSI06:1,2013-06-07T03:00:00Z,28.8667,-90.4833,10.0,4.18,139.0,,'11111222,11111222,99999999' 
WAVCIS,ioos:station:WAVCIS:CSI06:1,2013-06-07T04:00:00Z,28.8667,-90.4833,10.0,1.461,198.0,,'11111222,11111222,99999999' 
WAVCIS,ioos:station:WAVCIS:CSI06:1,2013-06-07T05:00:00Z,28.8667,-90.4833,10.0,2.426,229.0,,'11111222,11111222,99999999' 
WAVCIS,ioos:station:WAVCIS:CSI06:1,2013-06-07T06:00:00Z,28.8667,-90.4833,10.0,10.2,330.0,,'11111222,11111222,99999999' 
WAVCIS,ioos:station:WAVCIS:CSI06:1,2013-06-07T07:00:00Z,28.8667,-90.4833,10.0,4.557,277.0,,'11111222,11111222,99999999' 
WAVCIS,ioos:station:WAVCIS:CSI06:1,2013-06-07T08:00:00Z,28.8667,-90.4833,10.0,6.704,156.0,,'11111222,11111222,99999999' 
WAVCIS,ioos:station:WAVCIS:CSI06:1,2013-06-07T09:00:00Z,28.8667,-90.4833,10.0,2.884,221.0,,'11111222,11111222,99999999' 
WAVCIS,ioos:station:WAVCIS:CSI06:1,2013-06-07T10:00:00Z,28.8667,-90.4833,10.0,6.324,230.0,,'11111222,11111222,99999999' 
WAVCIS,ioos:station:WAVCIS:CSI06:1,2013-06-07T11:00:00Z,28.8667,-90.4833,10.0,7.36,258.0,,'11111222,11111222,99999999' 
WAVCIS,ioos:station:WAVCIS:CSI06:1,2013-06-07T12:00:00Z,28.8667,-90.4833,10.0,9.69,312.0,,'11111222,11111222,99999999' 
WAVCIS,ioos:station:WAVCIS:CSI06:1,2013-06-07T13:00:00Z,28.8667,-90.4833,10.0,7.65,323.0,,'11111222,11111222,99999999' 
WAVCIS,ioos:station:WAVCIS:CSI06:1,2013-06-07T14:00:00Z,28.8667,-90.4833,10.0,6.809,327.0,,'11111222,11111222,99999999' 
WAVCIS,ioos:station:WAVCIS:CSI06:1,2013-06-07T15:00:00Z,28.8667,-90.4833,10.0,6.937,319.0,,'11111222,11111222,99999999' 
WAVCIS,ioos:station:WAVCIS:CSI06:1,2013-06-07T16:00:00Z,28.8667,-90.4833,10.0,5.987,297.0,,'11111222,11111222,99999999' 
WAVCIS,ioos:station:WAVCIS:CSI06:1,2013-06-07T17:00:00Z,28.8667,-90.4833,10.0,5.948,272.0,,'11111222,11111222,99999999' 
WAVCIS,ioos:station:WAVCIS:CSI06:1,2013-06-07T18:00:00Z,28.8667,-90.4833,10.0,5.703,281.0,,'11111222,11111222,99999999' 
WAVCIS,ioos:station:WAVCIS:CSI06:1,2013-06-07T19:00:00Z,28.8667,-90.4833,10.0,5.551,279.0,,'11111222,11111222,99999999' 
WAVCIS,ioos:station:WAVCIS:CSI06:1,2013-06-07T20:00:00Z,28.8667,-90.4833,10.0,5.952,274.0,,'11111222,11111222,99999999' 
WAVCIS,ioos:station:WAVCIS:CSI06:1,2013-06-07T21:00:00Z,28.8667,-90.4833,10.0,4.904,273.0,,'11111222,11111222,99999999' 
WAVCIS,ioos:station:WAVCIS:CSI06:1,2013-06-07T22:00:00Z,28.8667,-90.4833,10.0,4.081,260.0,,'11111222,11111222,99999999' 
WAVCIS,ioos:station:WAVCIS:CSI06:1,2013-06-07T23:00:00Z,28.8667,-90.4833,10.0,4.719,262.0,,'11111222,11111222,99999999' 
WAVCIS,ioos:station:WAVCIS:CSI06:1,2013-06-08T00:00:00Z,28.8667,-90.4833,10.0,4.954,254.0,,'11111222,11111222,99999999' 
WAVCIS,ioos:station:WAVCIS:CSI06:1,2013-06-08T01:00:00Z,28.8667,-90.4833,10.0,4.627,258.0,,'11111222,11111222,99999999' 
WAVCIS,ioos:station:WAVCIS:CSI06:1,2013-06-08T02:00:00Z,28.8667,-90.4833,10.0,3.823,271.0,,'11111222,11111222,99999999' 
WAVCIS,ioos:station:WAVCIS:CSI06:1,2013-06-08T03:00:00Z,28.8667,-90.4833,10.0,2.954,257.0,,'11111222,11111222,99999999' 
WAVCIS,ioos:station:WAVCIS:CSI06:1,2013-06-08T04:00:00Z,28.8667,-90.4833,10.0,2.78,240.0,,'11111222,11111222,99999999' 
WAVCIS,ioos:station:WAVCIS:CSI06:1,2013-06-08T05:00:00Z,28.8667,-90.4833,10.0,2.621,230.0,,'11111222,11111222,99999999' 
WAVCIS,ioos:station:WAVCIS:CSI06:1,2013-06-08T06:00:00Z,28.8667,-90.4833,10.0,3.845,217.0,,'11111222,11111222,99999999' 
WAVCIS,ioos:station:WAVCIS:CSI06:1,2013-06-08T07:00:00Z,28.8667,-90.4833,10.0,4.815,212.0,,'11111222,11111222,99999999' 
WAVCIS,ioos:station:WAVCIS:CSI06:1,2013-06-08T08:00:00Z,28.8667,-90.4833,10.0,4.507,233.0,,'11111222,11111222,99999999' 
WAVCIS,ioos:station:WAVCIS:CSI06:1,2013-06-08T09:00:00Z,28.8667,-90.4833,10.0,3.522,234.0,,'11111222,11111222,99999999' 
WAVCIS,ioos:station:WAVCIS:CSI06:1,2013-06-08T10:00:00Z,28.8667,-90.4833,10.0,4.03,214.0,,'11111222,11111222,99999999' 
WAVCIS,ioos:station:WAVCIS:CSI06:1,2013-06-08T11:00:00Z,28.8667,-90.4833,10.0,3.46,234.0,,'11111222,11111222,99999999' 
WAVCIS,ioos:station:WAVCIS:CSI06:1,2013-06-08T12:00:00Z,28.8667,-90.4833,10.0,2.718,237.0,,'11111222,11111222,99999999' 
WAVCIS,ioos:station:WAVCIS:CSI06:1,2013-06-08T13:00:00Z,28.8667,-90.4833,10.0,0.72,242.0,,'11111222,11111222,99999999' 
WAVCIS,ioos:station:WAVCIS:CSI06:1,2013-06-08T14:00:00Z,28.8667,-90.4833,10.0,0.371,292.0,,'11111222,11111222,99999999' 
WAVCIS,ioos:station:WAVCIS:CSI06:1,2013-06-08T15:00:00Z,28.8667,-90.4833,10.0,0.739,99.0,,'11111222,11111222,99999999' 
WAVCIS,ioos:station:WAVCIS:CSI06:1,2013-06-08T16:00:00Z,28.8667,-90.4833,10.0,1.01,64.0,,'11111222,11111222,99999999' 
WAVCIS,ioos:station:WAVCIS:CSI06:1,2013-06-08T17:00:00Z,28.8667,-90.4833,10.0,3.7,131.0,,'11111222,11111222,99999999' 
WAVCIS,ioos:station:WAVCIS:CSI06:1,2013-06-08T18:00:00Z,28.8667,-90.4833,10.0,3.684,123.0,,'11111222,11111222,99999999' 
WAVCIS,ioos:station:WAVCIS:CSI06:1,2013-06-08T19:00:00Z,28.8667,-90.4833,10.0,4.351,122.0,,'11111222,11111222,99999999' 
WAVCIS,ioos:station:WAVCIS:CSI06:1,2013-06-08T20:00:00Z,28.8667,-90.4833,10.0,3.802,121.0,,'11111222,11111222,99999999' 
WAVCIS,ioos:station:WAVCIS:CSI06:1,2013-06-08T21:00:00Z,28.8667,-90.4833,10.0,4.073,122.0,,'11111222,11111222,99999999' 
WAVCIS,ioos:station:WAVCIS:CSI06:1,2013-06-08T22:00:00Z,28.8667,-90.4833,10.0,3.883,131.0,,'11111222,11111222,99999999' 
WAVCIS,ioos:station:WAVCIS:CSI06:1,2013-06-08T23:00:00Z,28.8667,-90.4833,10.0,5.917,132.0,,'11111222,11111222,99999999' 
WAVCIS,ioos:station:WAVCIS:CSI06:1,2013-06-09T00:00:00Z,28.8667,-90.4833,10.0,5.92,161.0,,'11111222,11111222,99999999' 
WAVCIS,ioos:station:WAVCIS:CSI06:1,2013-06-09T01:00:00Z,28.8667,-90.4833,10.0,5.955,133.0,,'11111222,11111222,99999999' 
WAVCIS,ioos:station:WAVCIS:CSI06:1,2013-06-09T02:00:00Z,28.8667,-90.4833,10.0,6.944,130.0,,'11111222,11111222,99999999' 
WAVCIS,ioos:station:WAVCIS:CSI06:1,2013-06-09T03:00:00Z,28.8667,-90.4833,10.0,8.65,132.0,,'11111222,11111222,99999999' 
WAVCIS,ioos:station:WAVCIS:CSI06:1,2013-06-09T04:00:00Z,28.8667,-90.4833,10.0,9.47,134.0,,'11111222,11111222,99999999' 
WAVCIS,ioos:station:WAVCIS:CSI06:1,2013-06-09T05:00:00Z,28.8667,-90.4833,10.0,9.83,137.0,,'11111222,11111222,99999999' 